CZ-6A DEB, 56583

Orbit data source: Space-Track

CZ-6A DEB, 56583 is space debris in SSO originally from a launch on Fri, 11 Nov 2022 UTC launched from the Taiyaun Space Center, China (TSC). Debris objects in space refer to the collection of defunct objects orbiting the Earth. Examples of debris include non-operational satellites, rocket bodies, and fragments generated from explosions, collisions, or faulty payload assembly.

Loading next visibility...
Identifier
56583, 2022-151ADF
Orbit
SSO
Country
Flag of CNCN / PRC
Related business
Manufacturer
SAST
Mission
Spacecraft
Bus & Motor
Unknown
Mass
Unknown
Launch date (UTC)
2022-11-11 (4 years ago)
Launch vehicle
Unknown
Launch site
Taiyaun Space Center, China (TSC)
Object type
Payload
Rocket body
Debris
Shape & HBR
Unknown shape, 0.1 m
Radar Cross Section
Medium (>0.1 m² and <1 m²)

Expand to show TLE details & history
Last TLE update: 2 days ago

TLE from 2 days ago
0 CZ-6A DEB
1 56583U 22151ADF 26171.17330153  .00027946  00000-0  26118-2 0  9996
2 56583  98.6198 256.1957 0052792 208.7993 151.0308 14.93032995173798
Epoch: 2026-06-20T04:09Z
TLE epoch observation values (Epoch: 2026-06-20T04:09:33.252Z)
Latitude
0.00006°
Longitude
-74.58458°
Altitude
623.73 km
Speed
7.529 km/s
True Right ascension
17h 04m 46s
True Declination
0° 00' 00"
Sunlit
Object was in full shadow at epoch
Visualization orbit readout
Latitude
Unknown
Longitude
Unknown
Altitude
Unknown
Speed
Unknown
Apparent Right ascension
Unknown
Apparent Declination
Unknown
Sunlit
N/A
Visualization observer readout
Local Sidereal Time
21:35:17
Azimuth
Unknown
Elevation
Unknown
Doppler factor
Unknown
Orbital elements
Apogee altitude
622.305 km
Perigee altitude
548.779 km
Semi-major axis
6,963.679 km
Eccentricity
0.00528
Inclination
98.6198°
RAAN
256.1957°
Arg. of periapsis
208.7993°
True anomaly
151.32212°
Mean anomaly
151.0308°
Eccentric anomaly
151.17663°
Mean motion
3.73495 °/min
Orbital period
96.39 mins
BSTAR
0.0026118
Loading maneuver chart data...
Computing Atmospheric mass density...
Loading historical data...
Loading historical data...
Loading historical data...
Loading historical data...
Loading historical data...
Loading historical data...
Loading historical data...

Documentation

Showing up to 5 results
|